• In Uzbekistan
  • List of Countries
  • For 7 days
  • Water Temperature
  • Satellite Maps
  • Weather Map
  • Weather Widgets
  • user-avatar
    Login

    Hourly Weather Mutare

    Today, 20 October, Saturday

    Time Temperature Precipitation Wind Pressure Humidity
    00:00 +19°C° 0 mm 1 mps 654 mmHg 86%
    01:00 +19°C° 0 mm 1 mps 654 mmHg 88%
    02:00 +18°C° 0 mm 1 mps 654 mmHg 90%
    03:00 +18°C° 0 mm 1 mps 654 mmHg 90%
    04:00 +18°C° 0 mm 1 mps 654 mmHg 91%
    05:00 +18°C° 0 mm 1 mps 654 mmHg 91%
    06:00 +20°C° 0 mm 1 mps 655 mmHg 82%
    07:00 +21°C° 0 mm 1 mps 656 mmHg 72%
    08:00 +23°C° 0 mm 1 mps 657 mmHg 62%
    09:00 +25°C° 0 mm 2 mps 657 mmHg 54%
    10:00 +27°C° 0 mm 2 mps 657 mmHg 45%
    11:00 +29°C° 0 mm 3 mps 657 mmHg 36%
    12:00 +29°C° 0 mm 3 mps 657 mmHg 35%
    13:00 +30°C° 0 mm 4 mps 657 mmHg 33%
    14:00 +30°C° 0 mm 4 mps 656 mmHg 31%
    15:00 +29°C° 0 mm 4 mps 656 mmHg 36%
    16:00 +28°C° 0 mm 5 mps 656 mmHg 42%
    17:00 +26°C° 0 mm 5 mps 656 mmHg 47%
    18:00 +23°C° 0 mm 5 mps 656 mmHg 53%
    19:00 +22°C° 0 mm 4 mps 656 mmHg 58%
    20:00 +20°C° 0 mm 4 mps 657 mmHg 63%
    21:00 +19°C° 0 mm 4 mps 657 mmHg 68%
    22:00 +18°C° 0 mm 3 mps 657 mmHg 72%
    23:00 +17°C° 0 mm 3 mps 657 mmHg 76%

    Tomorrow, 21 October, Sunday

    Time Temperature Precipitation Wind Pressure Humidity
    00:00 +17°C° 0.1 mm 3 mps 657 mmHg 78%
    01:00 +16°C° 0.1 mm 3 mps 657 mmHg 79%
    02:00 +16°C° 0.1 mm 2 mps 657 mmHg 81%
    03:00 +16°C° 0.1 mm 3 mps 657 mmHg 81%
    04:00 +16°C° 0.1 mm 3 mps 657 mmHg 80%
    05:00 +14°C° 0.1 mm 3 mps 657 mmHg 80%
    06:00 +16°C° 0 mm 3 mps 658 mmHg 76%
    07:00 +16°C° 0 mm 3 mps 659 mmHg 72%
    08:00 +17°C° 0 mm 3 mps 660 mmHg 67%
    09:00 +18°C° 0 mm 3 mps 660 mmHg 63%
    10:00 +19°C° 0 mm 3 mps 660 mmHg 59%
    11:00 +20°C° 0 mm 3 mps 660 mmHg 54%
    12:00 +20°C° 0 mm 3 mps 660 mmHg 52%
    13:00 +20°C° 0 mm 3 mps 659 mmHg 50%
    14:00 +21°C° 0 mm 3 mps 659 mmHg 49%
    15:00 +20°C° 0 mm 3 mps 658 mmHg 51%
    16:00 +19°C° 0 mm 3 mps 658 mmHg 53%
    17:00 +18°C° 0 mm 3 mps 658 mmHg 55%
    18:00 +17°C° 0 mm 3 mps 658 mmHg 59%
    19:00 +16°C° 0 mm 2 mps 658 mmHg 63%
    20:00 +15°C° 0 mm 2 mps 659 mmHg 67%
    21:00 +14°C° 0 mm 2 mps 659 mmHg 71%
    22:00 +14°C° 0 mm 2 mps 659 mmHg 76%
    23:00 +13°C° 0 mm 2 mps 659 mmHg 80%

    Day after tomorrow, 22 October, Monday

    Time Temperature Precipitation Wind Pressure Humidity
    00:00 +13°C° 0.1 mm 2 mps 658 mmHg 81%
    01:00 +13°C° 0.1 mm 2 mps 658 mmHg 81%
    02:00 +13°C° 0.1 mm 2 mps 658 mmHg 82%
    03:00 +13°C° 0 mm 2 mps 658 mmHg 81%
    04:00 +12°C° 0 mm 2 mps 658 mmHg 81%
    05:00 +12°C° 0 mm 2 mps 658 mmHg 80%
    06:00 +13°C° 0 mm 2 mps 659 mmHg 72%
    07:00 +14°C° 0 mm 2 mps 660 mmHg 65%
    08:00 +15°C° 0 mm 2 mps 660 mmHg 57%
    09:00 +17°C° 0 mm 2 mps 661 mmHg 48%
    10:00 +20°C° 0 mm 3 mps 661 mmHg 40%
    11:00 +22°C° 0 mm 3 mps 661 mmHg 31%
    12:00 +22°C° 0 mm 3 mps 660 mmHg 28%
    13:00 +23°C° 0 mm 4 mps 660 mmHg 26%
    14:00 +23°C° 0 mm 4 mps 659 mmHg 23%
    15:00 +22°C° 0 mm 4 mps 659 mmHg 26%
    16:00 +21°C° 0 mm 4 mps 658 mmHg 28%
    17:00 +20°C° 0 mm 4 mps 658 mmHg 30%
    18:00 +18°C° 0 mm 4 mps 658 mmHg 35%
    19:00 +16°C° 0 mm 3 mps 659 mmHg 40%
    20:00 +15°C° 0 mm 2 mps 659 mmHg 45%
    21:00 +14°C° 0 mm 2 mps 659 mmHg 55%
    22:00 +13°C° 0 mm 2 mps 659 mmHg 64%
    23:00 +12°C° 0 mm 2 mps 659 mmHg 74%

    23 October, Tuesday

    Time Temperature Precipitation Wind Pressure Humidity
    00:00 +12°C° 0.1 mm 1 mps 659 mmHg 77%
    01:00 +12°C° 0.1 mm 1 mps 658 mmHg 81%
    02:00 +12°C° 0.1 mm 1 mps 657 mmHg 84%
    03:00 +12°C° 0 mm 1 mps 658 mmHg 84%
    04:00 +12°C° 0 mm 1 mps 658 mmHg 84%
    05:00 +11°C° 0 mm 1 mps 658 mmHg 84%
    06:00 +13°C° 0 mm 2 mps 659 mmHg 75%
    07:00 +14°C° 0 mm 2 mps 660 mmHg 67%
    08:00 +16°C° 0 mm 2 mps 661 mmHg 58%
    09:00 +18°C° 0 mm 3 mps 661 mmHg 51%
    10:00 +19°C° 0 mm 3 mps 661 mmHg 44%
    11:00 +21°C° 0 mm 3 mps 661 mmHg 37%
    12:00 +22°C° 0 mm 3 mps 660 mmHg 35%
    13:00 +22°C° 0 mm 4 mps 660 mmHg 33%
    14:00 +23°C° 0 mm 4 mps 659 mmHg 31%
    15:00 +21°C° 0 mm 4 mps 659 mmHg 36%
    16:00 +20°C° 0 mm 4 mps 658 mmHg 40%
    17:00 +19°C° 0 mm 4 mps 658 mmHg 45%
    18:00 +17°C° 0 mm 3 mps 658 mmHg 51%
    19:00 +16°C° 0 mm 3 mps 658 mmHg 58%
    20:00 +15°C° 0 mm 2 mps 658 mmHg 65%
    21:00 +14°C° 0 mm 2 mps 658 mmHg 69%
    22:00 +14°C° 0 mm 2 mps 658 mmHg 74%
    23:00 +13°C° 0 mm 1 mps 658 mmHg 79%

    24 October, Wednesday

    Time Temperature Precipitation Wind Pressure Humidity
    00:00 +13°C° 0 mm 1 mps 658 mmHg 81%
    01:00 +12°C° 0 mm 1 mps 657 mmHg 83%
    02:00 +12°C° 0 mm 1 mps 657 mmHg 85%
    03:00 +12°C° 0 mm 1 mps 657 mmHg 87%
    04:00 +11°C° 0 mm 1 mps 657 mmHg 89%
    05:00 +11°C° 0 mm 1 mps 657 mmHg 91%
    06:00 +13°C° 0 mm 1 mps 658 mmHg 81%
    07:00 +14°C° 0 mm 1 mps 658 mmHg 71%
    08:00 +16°C° 0 mm 2 mps 659 mmHg 61%
    09:00 +18°C° 0 mm 2 mps 659 mmHg 53%
    10:00 +20°C° 0 mm 2 mps 659 mmHg 46%
    11:00 +23°C° 0 mm 2 mps 660 mmHg 39%
    12:00 +23°C° 0 mm 2 mps 659 mmHg 38%
    13:00 +24°C° 0 mm 3 mps 658 mmHg 37%
    14:00 +24°C° 0 mm 3 mps 658 mmHg 36%
    15:00 +22°C° 0 mm 3 mps 657 mmHg 40%
    16:00 +21°C° 0 mm 3 mps 657 mmHg 44%
    17:00 +20°C° 0 mm 2 mps 656 mmHg 48%
    18:00 +19°C° 0 mm 2 mps 656 mmHg 54%
    19:00 +17°C° 0 mm 2 mps 656 mmHg 61%
    20:00 +16°C° 0 mm 1 mps 656 mmHg 67%
    21:00 +15°C° 0 mm 1 mps 656 mmHg 71%
    22:00 +15°C° 0 mm 1 mps 656 mmHg 74%
    23:00 +14°C° 0 mm 1 mps 656 mmHg 78%

    25 October, Thursday

    Time Temperature Precipitation Wind Pressure Humidity
    00:00 +14°C° 0 mm 1 mps 655 mmHg 81%
    01:00 +13°C° 0 mm 1 mps 655 mmHg 84%
    02:00 +12°C° 0 mm 0 mps 655 mmHg 87%
    03:00 +12°C° 0 mm 0 mps 655 mmHg 89%
    04:00 +11°C° 0 mm 0 mps 655 mmHg 90%
    05:00 +12°C° 0 mm 1 mps 655 mmHg 91%
    06:00 +15°C° 0 mm 1 mps 656 mmHg 78%
    07:00 +18°C° 0 mm 1 mps 657 mmHg 65%
    08:00 +21°C° 0 mm 1 mps 657 mmHg 52%
    09:00 +23°C° 0 mm 1 mps 658 mmHg 44%
    10:00 +25°C° 0 mm 1 mps 658 mmHg 36%
    11:00 +28°C° 0 mm 1 mps 658 mmHg 28%
    12:00 +28°C° 0 mm 2 mps 658 mmHg 26%
    13:00 +29°C° 0 mm 2 mps 657 mmHg 25%
    14:00 +30°C° 0 mm 2 mps 657 mmHg 23%
    15:00 +29°C° 0 mm 2 mps 656 mmHg 25%
    16:00 +27°C° 0 mm 2 mps 656 mmHg 28%
    17:00 +26°C° 0 mm 3 mps 656 mmHg 31%
    18:00 +24°C° 0 mm 2 mps 656 mmHg 36%
    19:00 +21°C° 0 mm 2 mps 656 mmHg 42%
    20:00 +20°C° 0 mm 1 mps 656 mmHg 47%
    21:00 +20°C° 0 mm 1 mps 656 mmHg 50%
    22:00 +19°C° 0 mm 1 mps 656 mmHg 53%
    23:00 +18°C° 0 mm 1 mps 656 mmHg 56%
    Show more